Voltar ao catálogo

SL-16 DEB

AtivoLEO
NORAD 22406·DEBRIS·🇷🇺 Russia

Lançado Dec 25, 1992 de Baikonur Cosmodrome

Loading…

Próximas Passagens (próximas 24 horas)

TLE

AtualizadoSource: Space-Track

Época: Sep 14, 2026, 06:38 UTC

1 22406U 92093CX  26257.27667602  .00000170  00000-0  17313-3 0  9991
2 22406  70.7569   0.0374 0171110 148.8891 242.1651 13.83788263696128

Acompanhe SL-16 DEB em tempo real com AllMySat

Download on the App Store